This is the latest recevied weather packets stored in our database for station/object KD9JJA. If no packets are shown the sender has not sent any weather packets the latest 10 day(s).
| Time | Temp. | Humidity | Pressure | Rain* | Wind** | Luminosity | Snow |
|---|---|---|---|---|---|---|---|
| 1777954853 | 21.11° C | 58% | 1006.3 hPa | 0 mm | - | 0 W/m² | - |
| 1777954550 | 21.11° C | 57% | 1006.3 hPa | 0 mm | - | 0 W/m² | - |
| 1777954247 | 20.56° C | 57% | 1006.4 hPa | 0 mm | - | 0 W/m² | - |
| 1777953944 | 21.11° C | 55% | 1006.4 hPa | 0 mm | - | 0 W/m² | - |
| 1777953642 | 21.11° C | 59% | 1006.3 hPa | 0 mm | - | 0 W/m² | - |
| 1777953337 | 21.11° C | 56% | 1006.7 hPa | 0 mm | - | 0 W/m² | - |
| 1777953034 | 21.11° C | 59% | 1006.4 hPa | 0 mm | - | 0 W/m² | - |
| 1777952731 | 21.11° C | 56% | 1006.3 hPa | 0 mm | - | 0 W/m² | - |
| 1777952428 | 20.56° C | 56% | 1006.1 hPa | 0 mm | - | 0 W/m² | - |
| 1777952125 | 21.11° C | 58% | 1006.4 hPa | 0 mm | - | 0 W/m² | - |
| 1777951823 | 21.11° C | 58% | 1006.5 hPa | 0 mm | - | 0 W/m² | - |
| 1777951520 | 21.11° C | 56% | 1006.6 hPa | 0 mm | - | 0 W/m² | - |
| 1777951217 | 21.11° C | 55% | 1006.7 hPa | 0 mm | - | 0 W/m² | - |
| 1777950914 | 21.11° C | 55% | 1006.6 hPa | 0 mm | - | 0 W/m² | - |
| 1777950610 | 21.11° C | 55% | 1006.6 hPa | 0 mm | - | 0 W/m² | - |
| 1777950307 | 21.11° C | 57% | 1007 hPa | 0 mm | - | 0 W/m² | - |
| 1777950003 | 21.11° C | 55% | 1006.7 hPa | 0 mm | - | 0 W/m² | - |
| 1777949699 | 21.11° C | 57% | 1007 hPa | 0 mm | - | 0 W/m² | - |
| 1777949399 | 21.11° C | 57% | 1007.2 hPa | 0 mm | - | 0 W/m² | - |
| 1777949095 | 21.11° C | 57% | 1007 hPa | 0 mm | - | 0 W/m² | - |
| 1777948792 | 21.11° C | 56% | 1007.1 hPa | 0 mm | - | 0 W/m² | - |
| 1777948489 | 21.11° C | 56% | 1007.2 hPa | 0 mm | - | 0 W/m² | - |
| 1777948186 | 21.11° C | 59% | 1007 hPa | 0 mm | - | 0 W/m² | - |
| 1777947884 | 21.11° C | 56% | 1006.8 hPa | 0 mm | - | 0 W/m² | - |
| 1777947581 | 21.11° C | 60% | 1006.7 hPa | 0 mm | - | 0 W/m² | - |
* Rain latest hour (hover to see other rain measurements)
** Current wind speed in m/s (hover to see current wind gust speed)